Location: ?????
(37.7324°N, 23.9257°E)
Time: 01:33:36
(UTC+00:00)

Daily predictions for brighter satellites

Satellite Brightness Start Highest point End
(mag) Time Altitude Azimuth Time Altitude Azimuth Time Altitude Azimuth
NOSS 3-2 (C) 4.5 02:12:37 54° NNE 02:13:52 59° NE 02:22:21 10° SE
CENTAUR R/B 3.5 02:14:21 52° N 02:16:11 62° NE 02:24:58 10° SE
ATLAS 2AS CENTAUR R/B 3.1 02:27:56 54° S 02:29:56 75° ESE 02:37:51 10° NE
NOSS 3-2 (A) 4.0 02:41:09 69° WSW 02:41:22 69° WSW 02:49:57 10° SSE
Atlas Centaur 2 3.3 02:44:04 37° S 02:44:43 38° S 02:50:04 10° ESE
ERS-2 4.4 02:42:26 10° SE 02:44:42 24° E 02:44:42 24° E
BREEZE-M DEB (TANK) 4.5 02:45:10 52° NW 02:46:32 57° NNW 03:13:39 10° ENE
Lacrosse 5 2.8 02:52:48 38° NNE 02:52:48 38° NNE 02:55:59 10° NE
Cosmos 1538 Rocket 4.2 02:53:03 65° SSE 02:53:03 65° SSE 02:57:30 10° SSE
RESURS DK-1 4.1 02:50:45 19° SSE 02:53:00 32° ESE 02:56:43 10° NE
ADEOS 3.8 02:51:03 10° NNE 02:56:15 69° ESE 03:01:26 10° S
OAO 2 Rocket 3.6 02:58:09 61° SSE 02:58:09 61° SSE 03:02:50 10° E
Cosmos 2263 Rocket 3.8 03:01:26 22° N 03:01:26 22° N 03:03:31 10° N
USA 238 DEB 3.8 02:58:21 58° W 02:58:51 59° WSW 03:06:16 10° SSE
USA 238 3.8 02:58:26 59° W 02:58:57 60° WSW 03:06:22 10° SSE
SJ 16-02 3.4 03:08:47 17° N 03:08:47 17° N 03:09:53 10° NNE
Cosmos 1898 Rocket 4.3 03:04:26 10° S 03:09:34 53° ESE 03:14:45 10° NNE
Meteor 1-4 Rocket 3.4 03:12:33 45° E 03:12:33 45° E 03:15:33 10° SSE
Cosmos 1709 Rocket 4.0 03:13:09 10° SSW 03:19:23 57° W 03:25:41 10° N
FENGYUN 3A 3.6 03:15:03 10° N 03:20:23 62° WNW 03:25:41 10° SSW
Cosmos 2181 Rocket 4.0 03:15:45 10° N 03:21:57 82° E 03:28:05 10° S
Cosmos 2084 4.4 03:23:14 37° SSW 03:23:14 37° SSW 03:26:29 10° S
Cosmos 1408 Rocket 3.7 03:18:05 10° S 03:22:31 74° E 03:26:59 10° N
COSMO-SKYMED 1 3.3 03:22:07 10° SSE 03:26:20 53° ENE 03:30:35 10° N
Cosmos 1937 Rocket 4.2 03:21:48 10° S 03:26:47 54° ESE 03:31:49 10° NNE
CZ-4C R/B 1.8 03:25:49 44° WSW 03:27:19 70° NW 03:32:55 10° NNE
Meteor 2-3 Rocket 3.7 03:23:29 10° SSW 03:29:07 63° W 03:34:52 10° N
Cosmos 1603 3.9 03:30:28 43° W 03:31:09 45° WSW 03:36:28 10° S
BREEZE-M DEB (TANK) 4.3 03:30:34 25° NW 03:34:04 42° NNE 03:37:14 10° E
ATLAS 3B R/B 3.4 03:30:35 13° NNW 03:36:44 54° NE 03:43:47 10° SE
Cosmos 1943 3.5 03:36:00 37° WNW 03:37:31 45° WSW 03:42:53 10° S
Lacrosse 4 Rocket 1.4 03:38:10 44° NW 03:39:24 66° WSW 03:43:46 10° SSE
CZ-4B R/B 3.0 03:39:50 10° NNE 03:44:20 88° WNW 03:48:40 10° SSW
Cosmos 1689 Rocket 2.7 03:41:51 10° SSE 03:44:38 53° ENE 03:46:15 22° N
SAR-Lupe-4 3.4 03:42:30 10° SSE 03:46:03 87° WSW 03:48:19 21° NNW
Cosmos 1862 3.9 03:44:48 10° S 03:48:46 59° E 03:52:47 10° NNE
Cosmos 2074 Rocket 3.9 03:43:08 10° S 03:49:20 87° W 03:55:34 10° N
Aureole 2 Rocket 3.2 03:47:17 10° S 03:49:38 36° ESE 03:52:01 10° NE
SKYMED 3 4.4 03:46:00 10° S 03:50:20 80° WSW 03:54:41 10° NNW
Genesis I 3.3 03:49:54 39° W 03:50:46 47° NW 03:54:30 10° NNE
Cosmos 858 Rocket 4.4 03:45:47 10° SSW 03:50:59 90° W 03:56:15 10° NNE
Cosmos 990 Rocket 4.1 03:47:24 10° SW 03:52:29 52° WNW 03:57:37 10° N
Cosmos 1461 4.0 03:52:16 27° WSW 03:52:32 27° WSW 03:56:18 10° S
ALOS 4.0 03:52:00 10° NNW 03:53:16 16° NNW 03:53:16 16° NNW
YAOGAN 6 4.3 03:53:26 10° NNE 03:56:38 33° E 03:59:48 10° SSE
deb Chang Zheng 4 4.1 03:53:07 10° N 03:57:07 36° WNW 04:01:05 10° SW
Cosmos 923 Rocket 4.1 03:53:37 17° NNW 03:57:39 54° WSW 04:02:48 10° S
CZ-4B R/B 3.1 03:58:45 10° SSW 03:59:53 17° SW 03:59:53 17° SW
NOSS 3-4 (A) 4.5 04:00:49 21° WNW 04:02:06 22° NW 04:06:56 10° N
NOSS 3-4 (C) 4.5 04:00:54 21° WNW 04:02:13 23° NW 04:07:04 10° N
SAR-Lupe-1 4.1 03:59:35 10° S 04:03:04 53° W 04:05:49 15° NNW
PSLV R/B 4.2 04:00:35 10° NNE 04:04:24 63° E 04:08:06 10° S
Cosmos 405 Rocket 2.5 04:01:27 10° S 04:05:07 88° E 04:08:52 10° N
CENTAUR R/B 3.9 04:01:35 19° WNW 04:06:43 34° WSW 04:14:22 10° S
Cosmos 2184 Rocket 4.0 04:00:31 10° SSW 04:06:46 66° W 04:13:06 10° N
Milstar 3 Cent rocket 4.4 04:00:16 13° WSW 04:06:59 49° S 04:22:04 10° ESE
ASTRO F (AKARI) 4.1 04:04:49 10° N 04:07:55 83° WNW 04:11:06 10° SSW
PSLV R/B 4.0 04:09:45 10° S 04:13:49 58° W 04:17:54 10° NNW
USA 234 3.4 04:07:31 10° NE 04:14:05 80° SE 04:20:38 10° SW
Cosmos 158 Rocket 4.4 04:10:38 15° NW 04:14:14 36° WSW 04:18:48 10° SSW
Cosmos 1812 2.8 04:10:32 10° N 04:14:23 76° E 04:18:12 10° S
SKYMED 2 4.0 04:10:21 10° S 04:14:25 41° W 04:18:32 10° NNW
Cosmos 2228 Rocket 3.2 04:10:07 10° N 04:14:32 76° E 04:18:54 10° SSE
Cosmos 1515 Rocket 3.8 04:11:06 10° NNW 04:15:23 46° W 04:19:38 10° SSW
Cosmos 1844 Rocket 2.9 04:11:02 10° SW 04:16:28 48° WNW 04:21:57 10° N
SL-4 R/B 4.3 04:16:17 10° N 04:16:40 10° N 04:17:03 10° N
Cosmos 1151 Rocket 4.3 04:17:01 18° WNW 04:18:13 20° W 04:21:20 10° SW
ERS-2 3.7 04:16:34 10° SW 04:18:59 17° W 04:19:18 17° W
GPS 2-04 Rocket1 2.9 04:16:28 17° W 04:19:23 58° S 04:23:06 10° ESE
Cosmos 1782 3.7 04:16:35 12° NNW 04:19:46 29° W 04:23:15 10° SSW
ATLAS 2AS CENTAUR R/B 3.8 04:15:31 12° W 04:21:39 29° NW 04:28:18 10° NNE
COSMOS 2455 2.9 04:17:01 10° SSW 04:23:02 87° WNW 04:29:07 10° NNE
Spot 2 4.4 04:19:02 10° NNE 04:24:12 82° WNW 04:29:12 10° SSW
Cosmos 1680 Rocket 4.0 04:20:36 10° NW 04:25:32 40° WSW 04:30:26 10° S
Cosmos 1844 3.9 04:24:52 10° SW 04:30:10 46° WNW 04:35:32 10° N
RESURS DK-1 3.7 04:28:00 10° WSW 04:31:05 20° WNW 04:34:11 10° N
Atlas Centaur 2 3.1 04:27:37 10° WSW 04:33:27 39° S 04:38:06 10° ESE
NOAA 6 4.0 04:28:54 10° NNE 04:34:01 82° WNW 04:39:08 10° SSW
Cosmos 1500 Rocket 4.2 04:30:31 10° SW 04:34:23 32° WNW 04:38:18 10° NNW
Lacrosse 5 3.5 04:32:02 12° WNW 04:34:43 16° NNW 04:37:55 10° NNE
Cosmos 372 Rocket 3.9 04:30:36 10° SSW 04:35:40 69° WNW 04:40:45 10° NNE
ATLAS CENTAUR R/B 1.2 04:32:34 10° NNW 04:36:24 78° WSW 04:40:25 10° SSE
CZ-4B DEB 4.2 04:32:17 10° N 04:37:44 74° WNW 04:43:11 10° SSW
Meteor 2-6 Rocket 4.4 04:35:06 10° NNW 04:40:16 48° W 04:45:30 10° SSW
CZ-2C R/B 3.6 04:38:52 10° S 04:40:38 14° SSE 04:42:24 10° ESE
USA 81 4.5 04:35:59 10° S 04:41:11 68° E 04:46:25 10° N
H-2A R/B 3.5 04:38:20 10° N 04:41:47 30° WNW 04:45:12 10° SW
OAO 2 Rocket 3.8 04:37:28 10° W 04:42:25 56° S 04:47:27 10° ESE
PAYLOAD B 4.2 04:38:28 10° NNE 04:44:00 81° WNW 04:49:29 10° SSW
Cosmos 1437 Rocket 2.6 04:40:25 10° N 04:44:11 80° W 04:47:56 10° S
Okean O Rocket 2.0 04:41:16 10° NNE 04:45:43 73° ESE 04:50:09 10° S
ATLAS 5 CENTAUR R/B 1.6 04:43:24 10° SSW 04:47:20 77° ESE 04:51:39 10° NE
Gbstr 26 Del rocket 2.7 04:43:52 10° NW 04:47:38 79° SW 04:51:49 10° SE
SMAP 3.1 04:43:46 10° NNE 04:48:27 90° ENE 04:53:06 10° SSW
CZ-2C R/B 3.2 04:46:35 10° SSE 04:52:02 65° ENE 04:57:23 10° N
Nadezhda 3 Rocket 4.2 04:46:38 10° NNW 04:52:44 55° W 04:58:44 10° SSW
Sich 1 3.2 04:50:51 10° SSW 04:55:11 54° W 04:59:33 10° N
